Meteo Giornale » Osservazioni meteo Italia » Verona-Villafranca

ore: 01:50 - Osservazioni Meteo Verona-Villafranca
Lat. 45° 23' N Lon. 10° 52' E Alt. 67 metri s.l.m.

molto_nuvoloso Europe/Rome

20 °C

Molto Nuvoloso

Temp. 24 Ore

19 °C

25 °C

Ovest

14.8 Km/h

Dew point 18 °C

Umidità 88 %

Visibilità  10 Km

Il sole sorge alle ore 06:04

Il sole tramonta alle ore 20:40

Data e Ora Cielo e Fenomeni T °C DP °C Um. % Pres. hPa Vis. km Vento km/h
Oggi h: 01:50 molto_nuvoloso Molto Nuvoloso 20 18 88 1007 10 O 14.8
Oggi h: 01:20 molto_nuvoloso Molto Nuvoloso 20 17 82 1007 10 SO 14.8
Oggi h: 00:50 molto_nuvoloso Molto Nuvoloso 20 18 88 1007 10 SO 18.5
Oggi h: 00:20 molto_nuvoloso Molto Nuvoloso 21 17 77 1007 10 SE 9.3
Ieri h: 23:50 molto_nuvoloso Molto Nuvoloso 20 18 88 1007 10 N 5.5
Ieri h: 23:20 molto_nuvoloso Molto Nuvoloso 19 18 93 1008 10 N 3.7
Ieri h: 22:50 nuvoloso Nuvoloso 19 17 88 1008 10 N 3.7
Ieri h: 22:20 nuvoloso Nuvoloso 19 17 88 1008 10 N 3.7
Ieri h: 21:50 coperto_pioggia Pioviggine Leggera 19 17 88 1009 10 N 3.7
Ieri h: 21:20 coperto_pioggia Pioggia Debole 20 17 82 1009 10 N 5.5
Ieri h: 20:50 coperto_pioggia Pioviggine Leggera 20 17 82 1009 10 N 5.5
Ieri h: 20:20 coperto_pioggia Pioggia Debole 20 17 82 1009 10 N 7.4
Ieri h: 19:50 poco_nuvoloso Poco Nuvoloso 20 17 82 1009 10 O/NO 7.4
Ieri h: 19:20 nuvoloso Nuvoloso 20 17 82 1009 10 N/NE 9.3
Ieri h: 18:50 coperto_pioggia Pioviggine Leggera 20 18 88 1010 10 N/NE 13
Ieri h: 18:20 coperto_pioggia Pioviggine Leggera 21 18 82 1010 10 N/NE 16.7
Ieri h: 17:50 coperto_pioggia Pioviggine Leggera 21 19 88 1011 10 N/NE 11.1
Ieri h: 17:20 coperto_pioggia Pioviggine Leggera 21 19 88 1011 10 N 13
Ieri h: 16:50 coperto_pioggia Pioviggine Leggera 21 19 88 1011 10 N/NO 9.3
Ieri h: 16:20 coperto_pioggia Pioviggine Leggera 22 18 78 1011 10 N 13
Ieri h: 15:50 coperto_pioggia Pioviggine Leggera 22 17 73 1011 10 N 18.5
Ieri h: 15:20 coperto_pioggia Pioviggine Leggera 24 16 60 1011 10 N/NE 7.4
Ieri h: 14:50 coperto_pioggia Pioggia Debole 24 16 60 1012 10 N 3.7
Ieri h: 14:20 coperto_pioggia Pioviggine Leggera 24 17 64 1012 10 N 5.5
Ieri h: 13:50 coperto_pioggia Pioggia Debole 24 17 64 1012 10 SE 7.4
Ieri h: 13:20 molto_nuvoloso Molto Nuvoloso 24 17 64 1012 10 SE 11.1
Ieri h: 11:50 nuvoloso Nuvoloso 25 16 57 1012 10 N 7.4
Ieri h: 11:20 nuvoloso Nuvoloso 25 17 61 1013 10 SE 7.4
Ieri h: 10:50 nuvoloso Nuvoloso 24 17 64 1013 10 E/SE 9.3
Ieri h: 10:20 nuvoloso Nuvoloso 24 18 69 1013 10 E/SE 11.1
Ieri h: 09:50 sereno Sereno 23 17 68 1012 10 E/SE 9.3
Ieri h: 09:20 sereno Sereno 24 17 64 1013 10 E/SE 9.3
Ieri h: 08:50 sereno Sereno 23 17 68 1012 10 E/SE 9.3
Ieri h: 08:20 sereno Sereno 22 17 73 1012 10 N 5.5
Ieri h: 07:50 sereno Sereno 21 16 73 1012 10 N 3.7
Ieri h: 07:20 sereno Sereno 20 16 77 1012 10 N 5.5
Ieri h: 06:50 poco_nuvoloso Poco Nuvoloso 19 16 82 1012 10 N 5.5
Ieri h: 06:20 poco_nuvoloso Poco Nuvoloso 19 16 82 1012 10 N 5.5
Ieri h: 05:50 nuvoloso Nuvoloso 19 16 82 1012 10 N 5.5
Ieri h: 05:20 coperto_pioggia Pioggia Debole 19 16 82 1012 10 N 5.5
Ieri h: 04:50 molto_nuvoloso Molto Nuvoloso 19 16 82 1012 10 N 5.5
Ieri h: 04:20 coperto_pioggia Pioggia Debole 19 17 88 1012 10 N 5.5
Ieri h: 03:50 molto_nuvoloso Molto Nuvoloso 20 16 77 1012 10 N 3.7
Ieri h: 03:20 molto_nuvoloso Molto Nuvoloso 19 16 82 1012 10 N 1.8
Ieri h: 02:50 molto_nuvoloso Molto Nuvoloso 19 15 77 1012 10 N 1.8